Time,TemperatureF,DewpointF,PressureIn,WindDirection,WindDirectionDegrees,WindSpeedMPH,WindSpeedGustMPH,Humidity,HourlyPrecipIn,Conditions,Clouds,dailyrainin,SoftwareType,DateUTC
2013-02-03 00:41:00,32.0,32.0,30.30,North,0,0.0,-999.0,100,-99.99,,,-99.99,,2013-02-03 08:41:00,
2013-02-03 00:52:00,32.0,32.0,30.30,North,0,0.0,-999.0,100,-99.99,,,-99.99,,2013-02-03 08:52:00,
2013-02-03 01:11:00,30.0,30.0,30.30,North,0,0.0,-999.0,100,-99.99,,,-99.99,,2013-02-03 09:11:00,
2013-02-03 01:21:00,30.0,30.0,30.30,North,0,0.0,-999.0,100,-99.99,,,-99.99,,2013-02-03 09:21:00,
2013-02-03 01:31:00,30.0,30.0,30.30,North,0,0.0,-999.0,100,-99.99,,,-99.99,,2013-02-03 09:31:00,
2013-02-03 01:41:00,32.0,32.0,30.29,SSW,210,6.0,-999.0,100,-99.99,,,-99.99,,2013-02-03 09:41:00,
2013-02-03 01:51:00,32.0,32.0,30.29,SSW,210,6.0,-999.0,100,-99.99,,,-99.99,,2013-02-03 09:51:00,
2013-02-03 02:11:00,30.0,30.0,30.28,North,0,0.0,-999.0,100,-99.99,,,-99.99,,2013-02-03 10:11:00,
2013-02-03 02:21:00,30.0,30.0,30.28,North,0,0.0,-999.0,100,-99.99,,,-99.99,,2013-02-03 10:21:00,
2013-02-03 02:31:00,30.0,30.0,30.28,North,0,0.0,-999.0,100,-99.99,,,-99.99,,2013-02-03 10:31:00,
2013-02-03 02:41:00,30.0,30.0,30.28,North,0,0.0,-999.0,100,-99.99,,,-99.99,,2013-02-03 10:41:00,
2013-02-03 02:52:00,30.0,30.0,30.28,North,0,0.0,-999.0,100,-99.99,,,-99.99,,2013-02-03 10:52:00,
2013-02-03 03:11:00,28.0,28.0,30.29,North,0,0.0,-999.0,100,-99.99,,,-99.99,,2013-02-03 11:11:00,
2013-02-03 03:22:00,28.0,28.0,30.29,North,0,0.0,-999.0,100,-99.99,,,-99.99,,2013-02-03 11:22:00,
2013-02-03 03:31:00,28.0,28.0,30.29,North,0,0.0,-999.0,100,-99.99,,,-99.99,,2013-02-03 11:31:00,
2013-02-03 03:41:00,30.0,28.0,30.27,North,0,0.0,-999.0,92,-99.99,,,-99.99,,2013-02-03 11:41:00,
2013-02-03 03:52:00,30.0,28.0,30.27,North,0,0.0,-999.0,92,-99.99,,,-99.99,,2013-02-03 11:52:00,
2013-02-03 04:11:00,30.0,30.0,30.27,SW,220,3.0,-999.0,100,-99.99,,,-99.99,,2013-02-03 12:11:00,
2013-02-03 04:22:00,30.0,30.0,30.27,SW,220,3.0,-999.0,100,-99.99,,,-99.99,,2013-02-03 12:22:00,
2013-02-03 04:32:00,30.0,30.0,30.27,SW,220,3.0,-999.0,100,-99.99,,,-99.99,,2013-02-03 12:32:00,
2013-02-03 04:42:00,32.0,30.0,30.26,SSW,200,3.0,-999.0,92,-99.99,,,-99.99,,2013-02-03 12:42:00,
2013-02-03 04:52:00,32.0,30.0,30.26,SSW,200,3.0,-999.0,92,-99.99,,,-99.99,,2013-02-03 12:52:00,
2013-02-03 05:11:00,30.0,30.0,30.26,North,0,0.0,-999.0,100,-99.99,,,-99.99,,2013-02-03 13:11:00,
2013-02-03 05:21:00,30.0,30.0,30.26,North,0,0.0,-999.0,100,-99.99,,,-99.99,,2013-02-03 13:21:00,
2013-02-03 05:32:00,30.0,30.0,30.26,North,0,0.0,-999.0,100,-99.99,,,-99.99,,2013-02-03 13:32:00,
2013-02-03 05:42:00,30.0,30.0,30.26,North,0,0.0,-999.0,100,-99.99,,,-99.99,,2013-02-03 13:42:00,
2013-02-03 05:52:00,30.0,30.0,30.26,North,0,0.0,-999.0,100,-99.99,,,-99.99,,2013-02-03 13:52:00,
2013-02-03 06:11:00,32.0,32.0,30.27,North,0,0.0,-999.0,100,-99.99,,,-99.99,,2013-02-03 14:11:00,
2013-02-03 06:21:00,32.0,32.0,30.27,North,0,0.0,-999.0,100,-99.99,,,-99.99,,2013-02-03 14:21:00,
2013-02-03 06:32:00,32.0,32.0,30.27,North,0,0.0,-999.0,100,-99.99,,,-99.99,,2013-02-03 14:32:00,
2013-02-03 06:42:00,32.0,30.0,30.27,SSW,200,3.0,-999.0,92,-99.99,,,-99.99,,2013-02-03 14:42:00,
2013-02-03 06:52:00,32.0,30.0,30.27,SSW,200,3.0,-999.0,92,-99.99,,,-99.99,,2013-02-03 14:52:00,
2013-02-03 07:11:00,32.0,32.0,30.26,SW,230,3.0,-999.0,100,-99.99,,,-99.99,,2013-02-03 15:11:00,
2013-02-03 07:22:00,32.0,32.0,30.26,SW,230,3.0,-999.0,100,-99.99,,,-99.99,,2013-02-03 15:22:00,
2013-02-03 07:32:00,32.0,32.0,30.26,SW,230,3.0,-999.0,100,-99.99,,,-99.99,,2013-02-03 15:32:00,
2013-02-03 07:41:00,34.0,32.0,30.27,West,270,3.0,-999.0,93,-99.99,,,-99.99,,2013-02-03 15:41:00,
2013-02-03 07:51:00,34.0,32.0,30.27,West,270,3.0,-999.0,93,-99.99,,,-99.99,,2013-02-03 15:51:00,
2013-02-03 08:22:00,32.0,32.0,30.28,North,0,0.0,-999.0,100,-99.99,,,-99.99,,2013-02-03 16:22:00,
2013-02-03 08:32:00,32.0,32.0,30.28,North,0,0.0,-999.0,100,-99.99,,,-99.99,,2013-02-03 16:32:00,
2013-02-03 08:41:00,32.0,30.0,30.28,South,170,5.0,-999.0,92,-99.99,,,-99.99,,2013-02-03 16:41:00,
2013-02-03 08:52:00,32.0,30.0,30.28,South,170,5.0,-999.0,92,-99.99,,,-99.99,,2013-02-03 16:52:00,
2013-02-03 09:11:00,36.0,34.0,30.28,South,180,5.0,-999.0,93,-99.99,,,-99.99,,2013-02-03 17:11:00,
2013-02-03 09:21:00,36.0,34.0,30.28,South,180,5.0,-999.0,93,-99.99,,,-99.99,,2013-02-03 17:21:00,
2013-02-03 09:31:00,36.0,34.0,30.28,South,180,5.0,-999.0,93,-99.99,,,-99.99,,2013-02-03 17:31:00,
2013-02-03 09:42:00,36.0,34.0,30.28,SSE,160,5.0,-999.0,93,-99.99,,,-99.99,,2013-02-03 17:42:00,
2013-02-03 09:52:00,36.0,34.0,30.28,SSE,160,5.0,-999.0,93,-99.99,,,-99.99,,2013-02-03 17:52:00,
2013-02-03 10:02:00,36.0,34.0,30.28,SSE,160,5.0,-999.0,93,-99.99,,,-99.99,,2013-02-03 18:02:00,
2013-02-03 10:11:00,37.0,34.0,30.27,North,0,0.0,-999.0,86,-99.99,,,-99.99,,2013-02-03 18:11:00,
2013-02-03 10:23:00,37.0,34.0,30.27,North,0,0.0,-999.0,86,-99.99,,,-99.99,,2013-02-03 18:23:00,
2013-02-03 10:32:00,37.0,34.0,30.27,North,0,0.0,-999.0,86,-99.99,,,-99.99,,2013-02-03 18:32:00,
2013-02-03 10:41:00,39.0,36.0,30.28,SSE,160,6.0,-999.0,86,-99.99,,,-99.99,,2013-02-03 18:41:00,
2013-02-03 10:51:00,39.0,36.0,30.28,SSE,160,6.0,-999.0,86,-99.99,,,-99.99,,2013-02-03 18:51:00,
2013-02-03 11:11:00,48.0,39.0,30.27,WNW,300,13.0,17.0,70,-99.99,,,-99.99,,2013-02-03 19:11:00,
2013-02-03 11:22:00,48.0,39.0,30.27,WNW,300,13.0,17.0,70,-99.99,,,-99.99,,2013-02-03 19:22:00,
2013-02-03 11:31:00,48.0,39.0,30.27,WNW,300,13.0,17.0,70,-99.99,,,-99.99,,2013-02-03 19:31:00,
2013-02-03 11:41:00,48.0,41.0,30.27,West,280,8.0,18.0,76,-99.99,,,-99.99,,2013-02-03 19:41:00,
2013-02-03 11:51:00,48.0,41.0,30.27,West,280,8.0,18.0,76,-99.99,,,-99.99,,2013-02-03 19:51:00,
2013-02-03 12:12:00,48.0,39.0,30.26,WNW,290,14.0,23.0,70,-99.99,,,-99.99,,2013-02-03 20:12:00,
2013-02-03 12:21:00,48.0,39.0,30.26,WNW,290,14.0,23.0,70,-99.99,,,-99.99,,2013-02-03 20:21:00,
2013-02-03 12:32:00,48.0,39.0,30.26,WNW,290,14.0,23.0,70,-99.99,,,-99.99,,2013-02-03 20:32:00,
2013-02-03 12:42:00,48.0,39.0,30.25,WNW,290,13.0,28.0,70,-99.99,,,-99.99,,2013-02-03 20:42:00,
2013-02-03 12:52:00,48.0,39.0,30.25,WNW,290,13.0,28.0,70,-99.99,,,-99.99,,2013-02-03 20:52:00,
2013-02-03 13:11:00,48.0,39.0,30.23,WNW,290,17.0,25.0,70,-99.99,,,-99.99,,2013-02-03 21:11:00,
2013-02-03 13:21:00,48.0,39.0,30.23,WNW,290,17.0,25.0,70,-99.99,,,-99.99,,2013-02-03 21:21:00,
2013-02-03 13:32:00,48.0,39.0,30.23,WNW,290,17.0,25.0,70,-99.99,,,-99.99,,2013-02-03 21:32:00,
2013-02-03 13:42:00,48.0,39.0,30.23,WNW,290,14.0,25.0,70,-99.99,,,-99.99,,2013-02-03 21:42:00,
2013-02-03 13:51:00,48.0,39.0,30.23,WNW,290,14.0,25.0,70,-99.99,,,-99.99,,2013-02-03 21:51:00,
2013-02-03 14:11:00,48.0,39.0,30.21,WNW,290,10.0,23.0,70,-99.99,,,-99.99,,2013-02-03 22:11:00,
2013-02-03 14:21:00,48.0,39.0,30.21,WNW,290,10.0,23.0,70,-99.99,,,-99.99,,2013-02-03 22:21:00,
2013-02-03 14:32:00,48.0,39.0,30.21,WNW,290,10.0,23.0,70,-99.99,,,-99.99,,2013-02-03 22:32:00,
2013-02-03 15:12:00,46.0,39.0,30.20,WNW,300,18.0,29.0,75,-99.99,,,-99.99,,2013-02-03 23:12:00,
2013-02-03 15:22:00,46.0,39.0,30.20,WNW,300,18.0,29.0,75,-99.99,,,-99.99,,2013-02-03 23:22:00,
2013-02-03 15:32:00,46.0,39.0,30.20,WNW,300,18.0,29.0,75,-99.99,,,-99.99,,2013-02-03 23:32:00,
2013-02-03 15:41:00,48.0,39.0,30.20,WNW,300,17.0,25.0,70,-99.99,,,-99.99,,2013-02-03 23:41:00,
2013-02-03 15:52:00,48.0,39.0,30.20,WNW,300,17.0,25.0,70,-99.99,,,-99.99,,2013-02-03 23:52:00,
2013-02-03 16:11:00,46.0,37.0,30.20,WNW,290,14.0,24.0,70,-99.99,,,-99.99,,2013-02-04 00:11:00,
2013-02-03 16:22:00,46.0,37.0,30.20,WNW,290,14.0,24.0,70,-99.99,,,-99.99,,2013-02-04 00:22:00,
2013-02-03 16:31:00,46.0,37.0,30.20,WNW,290,14.0,24.0,70,-99.99,,,-99.99,,2013-02-04 00:31:00,
2013-02-03 16:41:00,48.0,37.0,30.20,WNW,300,16.0,27.0,66,-99.99,,,-99.99,,2013-02-04 00:41:00,
2013-02-03 16:51:00,48.0,37.0,30.20,WNW,300,16.0,27.0,66,-99.99,,,-99.99,,2013-02-04 00:51:00,
2013-02-03 17:11:00,46.0,37.0,30.21,WNW,300,16.0,24.0,70,-99.99,,,-99.99,,2013-02-04 01:11:00,
2013-02-03 17:21:00,46.0,37.0,30.21,WNW,300,16.0,24.0,70,-99.99,,,-99.99,,2013-02-04 01:21:00,
2013-02-03 17:31:00,46.0,37.0,30.21,WNW,300,16.0,24.0,70,-99.99,,,-99.99,,2013-02-04 01:31:00,
2013-02-03 18:11:00,46.0,37.0,30.21,WNW,290,15.0,25.0,70,-99.99,,,-99.99,,2013-02-04 02:11:00,
2013-02-03 18:21:00,46.0,37.0,30.21,WNW,290,15.0,25.0,70,-99.99,,,-99.99,,2013-02-04 02:21:00,
2013-02-03 18:31:00,46.0,37.0,30.21,WNW,290,15.0,25.0,70,-99.99,,,-99.99,,2013-02-04 02:31:00,
2013-02-03 18:41:00,46.0,37.0,30.21,WNW,300,15.0,23.0,70,-99.99,,,-99.99,,2013-02-04 02:41:00,
2013-02-03 18:52:00,46.0,37.0,30.21,WNW,300,15.0,23.0,70,-99.99,,,-99.99,,2013-02-04 02:52:00,
2013-02-03 19:11:00,46.0,37.0,30.22,WNW,300,17.0,21.0,70,-99.99,,,-99.99,,2013-02-04 03:11:00,
2013-02-03 19:21:00,46.0,37.0,30.22,WNW,300,17.0,21.0,70,-99.99,,,-99.99,,2013-02-04 03:21:00,
2013-02-03 19:32:00,46.0,37.0,30.22,WNW,300,17.0,21.0,70,-99.99,,,-99.99,,2013-02-04 03:32:00,
2013-02-03 19:41:00,46.0,37.0,30.22,WNW,290,12.0,18.0,70,-99.99,,,-99.99,,2013-02-04 03:41:00,
2013-02-03 19:51:00,46.0,37.0,30.22,WNW,290,12.0,18.0,70,-99.99,,,-99.99,,2013-02-04 03:51:00,
2013-02-03 20:11:00,46.0,36.0,30.22,WNW,300,10.0,20.0,65,-99.99,,,-99.99,,2013-02-04 04:11:00,
2013-02-03 20:21:00,46.0,36.0,30.22,WNW,300,10.0,20.0,65,-99.99,,,-99.99,,2013-02-04 04:21:00,
2013-02-03 20:31:00,46.0,36.0,30.22,WNW,300,10.0,20.0,65,-99.99,,,-99.99,,2013-02-04 04:31:00,
2013-02-03 20:41:00,46.0,36.0,30.22,WNW,290,12.0,17.0,65,-99.99,,,-99.99,,2013-02-04 04:41:00,
2013-02-03 20:52:00,46.0,36.0,30.22,WNW,290,12.0,17.0,65,-99.99,,,-99.99,,2013-02-04 04:52:00,
2013-02-03 21:11:00,46.0,37.0,30.21,WNW,290,7.0,-999.0,70,-99.99,,,-99.99,,2013-02-04 05:11:00,
2013-02-03 21:22:00,46.0,37.0,30.21,WNW,290,7.0,-999.0,70,-99.99,,,-99.99,,2013-02-04 05:22:00,
2013-02-03 21:33:00,46.0,37.0,30.21,WNW,290,7.0,-999.0,70,-99.99,,,-99.99,,2013-02-04 05:33:00,
2013-02-03 21:42:00,46.0,36.0,30.21,West,280,7.0,-999.0,65,-99.99,,,-99.99,,2013-02-04 05:42:00,
2013-02-03 21:52:00,46.0,36.0,30.21,West,280,7.0,-999.0,65,-99.99,,,-99.99,,2013-02-04 05:52:00,
2013-02-03 22:11:00,46.0,37.0,30.21,WNW,290,8.0,-999.0,70,-99.99,,,-99.99,,2013-02-04 06:11:00,
2013-02-03 22:21:00,46.0,37.0,30.21,WNW,290,8.0,-999.0,70,-99.99,,,-99.99,,2013-02-04 06:21:00,
2013-02-03 22:31:00,46.0,37.0,30.21,WNW,290,8.0,-999.0,70,-99.99,,,-99.99,,2013-02-04 06:31:00,
2013-02-03 22:41:00,45.0,37.0,30.20,WNW,290,10.0,-999.0,75,-99.99,,,-99.99,,2013-02-04 06:41:00,
2013-02-03 22:51:00,45.0,37.0,30.20,WNW,290,10.0,-999.0,75,-99.99,,,-99.99,,2013-02-04 06:51:00,
2013-02-03 23:11:00,46.0,36.0,30.20,WNW,290,3.0,-999.0,65,-99.99,,,-99.99,,2013-02-04 07:11:00,
2013-02-03 23:21:00,46.0,36.0,30.20,WNW,290,3.0,-999.0,65,-99.99,,,-99.99,,2013-02-04 07:21:00,
2013-02-03 23:31:00,46.0,36.0,30.20,WNW,290,3.0,-999.0,65,-99.99,,,-99.99,,2013-02-04 07:31:00,
2013-02-03 23:41:00,43.0,36.0,30.20,SW,220,7.0,-999.0,75,-99.99,,,-99.99,,2013-02-04 07:41:00,
2013-02-03 23:51:00,43.0,36.0,30.20,SW,220,7.0,-999.0,75,-99.99,,,-99.99,,2013-02-04 07:51:00,